Weather History for KIWA - February, 2012

Change the Weather History Date:

Wednesday, February 15, 2012

  Actual Average Record
Temperature  
Mean Temperature 52 °F -  
Max Temperature 64 °F 66 °F 84 °F (2014)
Min Temperature 41 °F 44 °F 33 °F (2014)
Degree Days  
Heating Degree Days 12    
Growing Degree Days 2 (Base 50)    
Moisture  
Dew Point 37 °F    
Average Humidity 66    
Maximum Humidity 87    
Minimum Humidity 30    
Precipitation  
Precipitation 0.00 in - - ()
Sea Level Pressure  
Sea Level Pressure 30.02 in    
Wind  
Wind Speed 7 mph (SE)    
Max Wind Speed 13 mph    
Max Gust Speed -    
Visibility 11 miles    
Events      
Averages and records for this station are not official NWS values.
T = Trace of Precipitation, MM = Missing Value Source: NWS Daily Summary

Daily Weather History Graph

Daily Weather History Graph

Search for Another Location

Airport or City:

Trip Planner

Search our weather history database for the weather conditions in past years. The results will help you decide how hot, cold, wet, or windy it might be!

Date:

Astronomy

Feb. 15, 2012 Rise Set
Actual Time 7:10 AM MST 6:11 PM MST
Civil Twilight 6:45 AM MST 6:36 PM MST
Nautical Twilight 6:16 AM MST 7:05 PM MST
Astronomical Twilight 5:47 AM MST 7:34 PM MST
Moon 1:58 AM MST (2/15) 12:19 PM MST (2/15)
Length of Visible Light 11h 51m
Length of Day
11h 00m
Last Quarter, 38% of the Moon is Illuminated
Feb 15
Last Quarter
Feb 21
New
Feb 29
First Quarter
Mar 8
Full
Mar 14
Last Quarter

Hourly Weather History & Observations

Time (MST) Temp. Windchill Dew Point Humidity Pressure Visibility Wind Dir Wind Speed Gust Speed Precip Events Conditions
12:15 AM 44.6 °F 39.7 °F 41.0 °F 87% 30.06 in 10.0 mi SSE 9.2 mph - N/A   Clear
12:35 AM 44.6 °F 40.7 °F 41.0 °F 87% 30.06 in 10.0 mi SE 6.9 mph - N/A   Clear
12:55 AM 44.6 °F 40.7 °F 41.0 °F 87% 30.06 in 10.0 mi SE 6.9 mph - N/A   Clear
1:15 AM 42.8 °F 38.0 °F 39.2 °F 87% 30.07 in 10.0 mi SSE 8.1 mph - N/A   Clear
1:35 AM 42.8 °F 38.0 °F 39.2 °F 87% 30.07 in 10.0 mi SE 8.1 mph - N/A   Clear
1:55 AM 42.8 °F 38.0 °F 39.2 °F 87% 30.07 in 10.0 mi SE 8.1 mph - N/A   Clear
2:15 AM 42.8 °F 37.5 °F 39.2 °F 87% 30.07 in 10.0 mi SSE 9.2 mph - N/A   Clear
2:35 AM 42.8 °F 38.0 °F 39.2 °F 87% 30.07 in 10.0 mi SE 8.1 mph - N/A   Clear
2:55 AM 42.8 °F 37.5 °F 39.2 °F 87% 30.07 in 10.0 mi SSE 9.2 mph - N/A   Clear
3:15 AM 42.8 °F 39.3 °F 39.2 °F 87% 30.08 in 10.0 mi SSE 5.8 mph - N/A   Clear
3:35 AM 41.0 °F 37.1 °F 37.4 °F 87% 30.08 in 10.0 mi SSE 5.8 mph - N/A   Clear
3:55 AM 41.0 °F 37.1 °F 37.4 °F 87% 30.07 in 10.0 mi SE 5.8 mph - N/A   Clear
4:15 AM 41.0 °F 36.4 °F 35.6 °F 81% 30.07 in 10.0 mi ESE 6.9 mph - N/A   Clear
4:35 AM 41.0 °F 37.1 °F 35.6 °F 81% 30.07 in 10.0 mi SE 5.8 mph - N/A   Clear
4:55 AM 41.0 °F 38.0 °F 37.4 °F 87% 30.08 in 10.0 mi ESE 4.6 mph - N/A   Clear
5:15 AM 41.0 °F 38.0 °F 35.6 °F 81% 30.08 in 10.0 mi East 4.6 mph - N/A   Clear
5:47 AM 41.0 °F 38.0 °F 37.4 °F 87% 30.08 in 20.0 mi SE 4.6 mph - N/A   Clear
6:47 AM 41.0 °F 38.0 °F 37.4 °F 87% 30.08 in 20.0 mi South 4.6 mph - N/A   Clear
7:47 AM 41.0 °F - 37.4 °F 87% 30.11 in 45.0 mi Calm Calm - N/A   Clear
8:47 AM 46.4 °F 44.3 °F 39.2 °F 76% 30.12 in 45.0 mi SE 4.6 mph - N/A   Partly Cloudy
9:47 AM 51.8 °F - 39.2 °F 62% 30.11 in 45.0 mi ESE 4.6 mph - N/A   Partly Cloudy
10:47 AM 57.2 °F - 41.0 °F 55% 30.10 in 45.0 mi ESE 6.9 mph - N/A   Scattered Clouds
11:47 AM 60.8 °F - 39.2 °F 45% 30.07 in 45.0 mi SSE 12.7 mph - N/A   Scattered Clouds
12:50 PM 60.8 °F - 37.4 °F 42% 30.03 in 45.0 mi SSE 8.1 mph - N/A   Mostly Cloudy
1:47 PM 62.6 °F - 35.6 °F 37% 30.00 in 45.0 mi SE 11.5 mph - N/A   Scattered Clouds
3:47 PM 64.4 °F - 32.0 °F 30% 29.93 in 45.0 mi SE 5.8 mph - N/A   Scattered Clouds
4:47 PM 64.4 °F - 32.0 °F 30% 29.94 in 45.0 mi SSE 9.2 mph - N/A   Scattered Clouds
5:47 PM 64.4 °F - 32.0 °F 30% 29.93 in 45.0 mi SE 5.8 mph - N/A   Scattered Clouds
6:47 PM 60.8 °F - 33.8 °F 36% 29.94 in 20.0 mi East 4.6 mph - N/A   Scattered Clouds
7:55 PM 55.4 °F - 32.0 °F 41% 29.93 in 10.0 mi East 5.8 mph - N/A   Clear
8:15 PM 55.4 °F - 33.8 °F 44% 29.93 in 10.0 mi East 5.8 mph - N/A   Clear
8:35 PM 55.4 °F - 35.6 °F 47% 29.94 in 10.0 mi East 9.2 mph - N/A   Clear
8:47 PM 55.4 °F - 37.4 °F 51% 29.94 in 20.0 mi ENE 6.9 mph - N/A   Partly Cloudy
8:55 PM 53.6 °F - 35.6 °F 51% 29.94 in 10.0 mi East 8.1 mph - N/A   Clear
9:15 PM 53.6 °F - 35.6 °F 51% 29.94 in 10.0 mi East 9.2 mph - N/A   Clear
9:35 PM 53.6 °F - 35.6 °F 51% 29.95 in 10.0 mi East 6.9 mph - N/A   Clear
9:55 PM 50.0 °F - 35.6 °F 58% 29.95 in 10.0 mi South 5.8 mph - N/A   Clear
10:15 PM 48.2 °F - 37.4 °F 66% 29.96 in 10.0 mi SE 4.6 mph - N/A   Clear
10:35 PM 50.0 °F - 37.4 °F 62% 29.96 in 10.0 mi Calm Calm - N/A   Clear
10:55 PM 50.0 °F - 37.4 °F 62% 29.96 in 10.0 mi Calm Calm - N/A   Clear
11:15 PM 50.0 °F - 35.6 °F 58% 29.95 in 10.0 mi Calm Calm - N/A   Clear
11:35 PM 48.2 °F - 37.4 °F 66% 29.95 in 10.0 mi Calm Calm - N/A   Clear
11:55 PM 48.2 °F - 37.4 °F 66% 29.95 in 10.0 mi Calm Calm - N/A   Clear